Preview of NWS' New Version of Forecast
This preview is not operational and should not be used for support decisions.

Regional Weather Roundup (RWR)

Issued by National Weather Service (NWS)

                            
000
ASUS45 KCYS 210910
RWRWY 

WYOMING REGIONAL WEATHER ROUNDUP
NATIONAL WEATHER SERVICE CHEYENNE WY
300 AM MDT WED AUG 21 2019

NOTE:  "FAIR" INDICATES FEW OR NO CLOUDS BELOW 12,000 FEET
WITH NO SIGNIFICANT WEATHER AND/OR OBSTRUCTIONS TO VISIBILITY.

WYZ001-211000-
...YELLOWSTONE NATIONAL PARK...
  
CITY           SKY/WX    TMP DP  RH WIND       PRES   REMARKS
LK YELLOWSTONE   N/A     44  38  79 CALM      30.36F                  
W YELLOWSTONE  NOT AVBL                                               

$$
WYZ002>013-054>058-071-098>099-211000-
...NORTHERN WYOMING...
  
CITY           SKY/WX    TMP DP  RH WIND       PRES   REMARKS
JACKSON        CLEAR     51  37  58 NE6       30.23F                  
CODY           PTCLDY    61  51  70 CALM      30.19F                  
GREYBULL       PTCLDY    70  51  51 NW10      30.08F                  
WORLAND        PTCLDY    64  53  67 N3        30.09F                  
SHERIDAN       PTCLDY    61  53  75 E5        30.08S                  
BUFFALO        PTCLDY    64  53  67 S8        30.16S                  
GILLETTE       CLOUDY    62  56  80 S5        30.13F                  
HULETT         FAIR      59  54  82 N7        30.16S                  
NEWCASTLE      FAIR      61  50  67 N7        30.13R                  

$$
WYZ014>020-022>026-101>103-211000-
...CENTRAL WYOMING...
  
CITY           SKY/WX    TMP DP  RH WIND       PRES   REMARKS
BIG PINEY      CLEAR     47  23  38 N6        30.26S                  
PINEDALE       CLEAR     43  32  65 W5        30.27S                  
DUBOIS         FAIR      52  32  46 W8        30.30F                  
LANDER         CLEAR     66  50  56 W10       30.19F                  
RIVERTON       PTCLDY    64  47  53 NW9       30.17F                  
CASPER         CLEAR     55  48  77 CALM      30.16F                  
DOUGLAS        CLEAR     59  51  75 S6        30.14F                  

$$
WYZ021-027>030-104>119-211000-
...SOUTHERN WYOMING...
  
CITY           SKY/WX    TMP DP  RH WIND       PRES   REMARKS
EVANSTON       CLEAR     58  21  24 SE7       30.26S                  
KEMMERER       CLEAR     55  27  33 NW13      30.26F                  
FORT BRIDGER   NOT AVBL                                               
ROCK SPRINGS   CLEAR     62  22  21 CALM      30.23S                  
DIXON          FAIR      47  22  37 SE7       30.24R                  
RAWLINS        CLEAR     56  48  74 NE9       30.24S                  
SARATOGA       FAIR      52  36  54 W6        30.26R                  
LARAMIE        CLEAR     56  52  86 S14       30.26F                  
CHEYENNE       MOCLDY    58  53  84 W5        30.23F                  
TORRINGTON     CLOUDY    61  58  90 NW5       30.13R                  
PINE BLUFFS    FAIR      57  55  94 E5        30.20R                  

$$